Regional Weather Roundup
Issued by NWS Green Bay, WI

Home | Current Version | Previous Version | Graphics & Text | Print | Product List | Glossary Off
Versions: 1 2 3 4 5 6 7 8 9 10 11 12 13 14 15 16 17 18 19 20 21 22 23 24 25 26 27 28 29 30 31 32 33 34 35 36 37 38 39 40 41 42 43 44 45 46 47 48 49 50

000
ASUS43 KGRB 261400
RWRGRB

NORTH-CENTRAL AND NORTHEAST WISCONSIN REGIONAL WEATHER ROUNDUP
NATIONAL WEATHER SERVICE GREEN BAY WI
900 AM CDT MON JUN 26 2017

WIZ005-009-010>012-018-019-261500-
NORTH CENTRAL WISCONSIN

CITY           SKY/WX    TMP DP  RH WIND       PRES   REMARKS
IRONWOOD       RAIN      47  46  97 N8        30.10R
MANITOWISH WTR NOT AVBL
ARBOR VITAE    NOT AVBL
EAGLE RIVER    NOT AVBL
LAND O LAKES   CLOUDY    47  46  94 NW8       30.04S
RHINELANDER    LGT RAIN  47  46  97 NW8       30.05R
PHILLIPS       LGT RAIN  47  46  95 NW10G16   30.09R
ANTIGO         NOT AVBL
TOMAHAWK       NOT AVBL
MERRILL        CLOUDY    48  45  88 NW12G21   30.07S
$$

WIZ013-073-261500-
NORTHEAST WISCONSIN

CITY           SKY/WX    TMP DP  RH WIND       PRES   REMARKS
IRON MOUNTAIN  CLOUDY    52  45  77 NW9       29.98S
MARINETTE      CLOUDY    53  45  74 NW10      30.00S
$$

WIZ017-030-035>037-045-261500-
CENTRAL WISCONSIN

CITY           SKY/WX    TMP DP  RH WIND       PRES   REMARKS
MEDFORD        NOT AVBL
WAUSAU         LGT RAIN  50  44  80 NW9       30.06R
MOSINEE        NOT AVBL
MARSHFIELD     MOSUNNY   53  43  68 NW21      30.09S
WISC RAPIDS    PTSUNNY   56  45  66 NW15      30.10F
STEVENS POINT  NOT AVBL
WAUPACA        PTSUNNY   55  44  68 NW13G22   30.08S
SHAWANO        NOT AVBL
CLINTONVILLE   CLOUDY    52  41  66 NW15G23   30.05S
WAUTOMA        MOSUNNY   56  45  66 W15G22    30.09S
$$

WIZ038-039-048-051-261500-
FOX VALLEY

CITY           SKY/WX    TMP DP  RH WIND       PRES   REMARKS
NWS GREEN BAY  PTSUNNY   56  48  74 W17G23    30.04S
APPLETON       PTSUNNY   54  45  71 W15G21    30.04F
OSHKOSH        MOSUNNY   56  46  69 W14G22    30.05F
FOND DU LAC    SUNNY     57  45  64 W16       30.07S
$$

WIZ022-050-052-261500-
EAST CENTRAL WISCONSIN

CITY           SKY/WX    TMP DP  RH WIND       PRES   REMARKS
EPHRAIM        NOT AVBL
WASHINGTON ISL NOT AVBL
STURGEON BAY     N/A     53  45  74 W12         N/A
MANITOWOC      NOT AVBL
SHEBOYGAN      MOSUNNY   58  48  69 NW15G28   30.05R
$$

LMZ563-521-522-541>543-261500-
LAKESHORE

STATION/POSITION TIME  TEMP    WIND        PRES    VSBY  WAVE
                       AIR SEA DIR/SP/G                  HT/PER
                 (UTC) (F)     (DEG/KT/KT) (MB)    (MI)  (FT/S)
SHEBOYGAN LKSHOR 1300   55     260/ 13/ 16 1017.2F
KEWAUNEE LKSHORE 1330   56     290/  9/ 14 1015.8R
NORTHPORT PIER   1340   54     300/  9/ 16 1014.9S
N MID LAKE BUOY  1250   54 56  250/ 12/ 16 1014.8S         2/ 4
S GREEN BAY BUOY 1330   54     280/ 14/ 17 1015.8F
CHAMBERS ISLAND  1340   56     280/  5/ 13 1014.9S
MENOMINEE LKSHOR 1324          280/  8/ 13 1015.0
$$




USA.gov is the U.S. government's official web portal to all federal, state and local government web resources and services.